Zurück zum Katalog

FENGYUN 1C DEB

AktivSSO
NORAD 37716·DEBRIS·🇨🇳 China

Gestartet May 10, 1999 von Taiyuan Satellite Launch Center

Loading…

Nächste Überflüge (nächste 24 Stunden)

TLE

AktuellSource: Space-Track

Epoche: Sep 12, 2026, 10:44 UTC

1 37716U 99025EMH 26255.44738898  .00001822  00000-0  71085-3 0  9997
2 37716  98.6636 320.7036 0034421 128.2236 248.7885 14.30542755644825

Verfolge FENGYUN 1C DEB in Echtzeit mit AllMySat

Download on the App Store